Regional Weather Roundup
Issued by NWS Huntsville, AL

Home | Current Version | Previous Version | Text Only | Print | Product List | Glossary On
Versions: 1 2 3 4 5 6 7 8 9 10 11 12 13 14 15 16 17 18 19 20 21 22 23 24 25 26 27 28 29 30 31 32 33 34 35 36 37 38 39 40 41 42 43 44 45 46 47 48 49 50
000
ASUS44 KHUN 010210
RWRHUN

WEATHER ROUNDUP FOR THE TENNESSEE VALLEY
NATIONAL WEATHER SERVICE HUNTSVILLE AL
900 PM CDT MON AUG 31 2015

ALZ001>004-010300-
NORTHWEST ALABAMA

CITY           SKY/WX    TMP DP  RH WIND       PRES   REMARKS
SHOALS AIRPORT PTCLDY    72  67  84 CALM      30.10R
SHOALS TVA RES   N/A     70 N/A N/A MISG        N/A
$$

ALZ005>007-016-010300-
NORTH CENTRAL ALABAMA

CITY           SKY/WX    TMP DP  RH WIND       PRES   REMARKS
DECATUR AP     FAIR      70  69  97 CALM      30.10R
HUNTSVILLE AP  PTCLDY    75  69  81 CALM      30.10R
HUN NWS/UAH      N/A     79  67  67 W1          N/A
MERIDIANVILLE  CLEAR     70  64  83 CALM      30.10R
REDSTONE ARSN  MOCLDY    75  71  88 S1        30.09R
VINEMONT AP    FAIR      68  68 100 CALM      30.13R
$$

ALZ008>010-010300-
NORTHEAST ALABAMA

CITY           SKY/WX    TMP DP  RH WIND       PRES   REMARKS
ALBERTVILLE    CLOUDY    72  72 100 CALM      30.12R
FORT PAYNE     CLEAR     70  64  83 CALM      30.11R
SCOTTSBORO AP  CLEAR     72  70  94 CALM      30.11R
SCOTTSBORO HCN   N/A     70 N/A N/A MISG        N/A
VALLEY HEAD      N/A     68 N/A N/A MISG        N/A
$$

TNZ076-096-097-010300-
SOUTHEASTERN MIDDLE TENNESSEE

CITY           SKY/WX    TMP DP  RH WIND       PRES   REMARKS
TULLAHOMA      CLEAR     70  66  88 CALM      30.13R
WINCHESTER     CLEAR     70  68  94 CALM      30.12R
$$

...SURROUNDING SITES...

CITY           SKY/WX    TMP DP  RH WIND       PRES   REMARKS
ATLANTA        PTCLDY    75  68  78 CALM      30.11R
ANNISTON       CLEAR     72  70  93 CALM      30.10R
BIRMINGHAM     CLEAR     74  70  87 CALM      30.12R
CHATTANOOGA    PTCLDY    75  68  78 CALM      30.10R
DALTON         CLEAR     70  70 100 CALM      30.10R
GADSDEN        CLEAR     72  66  83 CALM      30.09R
GOLDEN TRNGL   CLEAR     79  66  65 CALM      30.06R
HALEYVILLE     FAIR      71  71 100 CALM      30.14R
JACKSON TN     PTCLDY    71  68  90 CALM      30.07R
MEMPHIS        MOCLDY    84  66  54 SE5       30.05R
NASHVILLE      PTCLDY    80  63  55 E3        30.10R
OXFORD MS      FAIR      75  66  73 SE6       30.09R
ROME           CLEAR     72  69  90 CALM      30.09R
SAVANNAH       CLEAR     72  32  23 CALM      30.09R
TUPELO         PTCLDY    76  69  79 CALM      30.06R
TUSCALOOSA     CLEAR     76  70  82 CALM      30.07R
$$

...GULF COAST WEATHER...

CITY           SKY/WX    TMP DP  RH WIND       PRES   REMARKS
GULFPORT       CLEAR     79  70  74 CALM      30.03R
PASCAGOULA     CLEAR     74  71  91 CALM      30.04R
MOBILE         CLEAR     79  70  74 SW3       30.05R
GULF SHORES    CLEAR     75  72  89 CALM      30.04R
PENSACOLA      PTCLDY    76  71  85 CALM      30.03R
DESTIN         CLEAR     83  73  72 CALM      30.03R
PANAMA CITY    CLEAR     80  74  80 SE3       30.04R
APPALACHICOLA  PTCLDY    77  75  93 CALM      30.04R
$$




USA.gov is the U.S. government's official web portal to all federal, state and local government web resources and services.